Location: Follega
(52.8850°N, 5.7362°E)
Time: 09:40:19
(UTC+00:00)

Daily predictions for brighter satellites

Satellite Brightness Start Highest point End
(mag) Time Altitude Azimuth Time Altitude Azimuth Time Altitude Azimuth
Nadezhda 4 Rocket 4.3 20:30:55 10° SSE 20:36:46 49° E 20:42:37 10° NNE
MetOp-B 4.5 20:34:13 10° S 20:39:33 67° WSW 20:44:55 10° NNW
STARLINK-1219 3.7 20:36:24 10° W 20:40:34 90° WNW 20:44:44 10° E
STARLINK-1073 4.1 20:36:54 10° W 20:40:54 48° SSW 20:44:54 10° SE
SL-8 R/B 4.4 20:36:40 10° W 20:41:09 40° SSW 20:45:38 10° SE
Cosmos 2279 Rocket 4.4 20:34:59 10° NNW 20:41:11 66° W 20:47:20 10° S
STARLINK-1192 3.7 20:38:51 10° WSW 20:42:56 58° SSE 20:47:01 10° E
ATLAS CENTAUR R/B 2.6 20:43:18 10° WNW 20:45:04 24° N 20:46:40 10° NE
STARLINK-1211 3.7 20:41:24 10° W 20:45:34 89° NNE 20:49:44 10° E
STARLINK-1121 4.1 20:41:53 10° W 20:45:52 46° SSW 20:49:49 10° SE
Cosmos 371 Rocket 3.5 20:41:51 10° SSW 20:46:44 80° WNW 20:51:39 10° NNE
STARLINK-1244 3.6 20:43:48 10° WSW 20:47:53 61° SSE 20:51:59 10° E
Cosmos 2151 Rocket 4.5 20:43:36 10° NNW 20:48:01 51° W 20:52:23 10° S
SL-4 R/B 4.1 20:46:03 10° SSE 20:48:02 12° SE 20:50:02 10° ESE
Cosmos 1110 Rocket 4.3 20:43:59 10° S 20:48:56 47° ESE 20:53:53 10° NE
Terra 2.3 20:44:50 10° SE 20:49:24 48° ENE 20:54:00 10° N
Abrixas rocket 3.7 20:47:23 10° WSW 20:49:32 18° SSW 20:51:41 10° SSE
STARLINK-1245 3.7 20:46:22 10° W 20:50:32 88° N 20:54:42 10° E
Spot 2 Rocket 3.9 20:45:40 10° S 20:50:40 64° WSW 20:55:43 10° NNW
STARLINK-1106 4.2 20:46:54 10° W 20:50:51 43° SSW 20:54:47 10° SE
SPOT 1/Viking Rocket 3.6 20:46:21 10° SSE 20:51:31 84° WSW 20:56:42 10° NNW
ERBS 2.8 20:48:55 10° WSW 20:52:12 63° NNW 20:55:31 10° ENE
CARTOSAT-1 3.6 20:48:19 10° SSE 20:52:37 71° ENE 20:56:56 10° N
STARLINK-1138 3.6 20:48:45 10° WSW 20:52:51 63° SSE 20:56:58 10° E
STARLINK-1234 3.0 20:50:04 10° W 20:53:21 84° SSW 20:56:39 10° ESE
STARLINK-1233 3.7 20:51:20 10° W 20:55:30 88° N 20:59:39 10° E
STARLINK-1112 4.3 20:51:51 10° W 20:55:46 41° SSW 20:59:41 10° SE
STARLINK-1143 3.6 20:53:42 10° WSW 20:57:48 66° SSE 21:01:56 10° E
STARLINK-1209 3.0 20:56:02 10° W 20:59:20 80° SSW 21:02:38 10° ESE
STARLINK-1204 3.7 20:56:19 10° W 21:00:29 87° N 21:04:39 10° E
STARLINK-1128 4.4 20:56:50 10° W 21:00:43 39° SSW 21:04:28 11° SE
STARLINK-1241 3.6 20:58:42 10° WSW 21:02:49 69° SSE 21:06:57 10° E
STARLINK-1238 3.7 21:01:19 10° W 21:05:29 87° N 21:09:39 10° E
STARLINK-1113 4.4 21:01:50 10° W 21:05:41 37° SSW 21:09:15 11° SE
Cosmos 1331 Rocket 4.1 21:00:38 10° S 21:05:41 58° ESE 21:10:48 10° NNE
Cosmos 1733 3.5 21:02:14 10° N 21:06:01 55° ENE 21:09:32 11° SSE
Aureole 2 Rocket 2.0 21:03:18 10° SSW 21:06:22 88° ESE 21:09:19 10° NNE
STARLINK-1239 3.6 21:03:39 10° WSW 21:07:46 71° SSE 21:11:55 10° E
STARLINK-1201 3.7 21:06:18 10° W 21:10:28 87° N 21:14:37 10° E
Cosmos 1437 Rocket 3.4 21:07:39 10° SSW 21:11:22 54° WNW 21:15:10 10° N
STARLINK-1240 3.5 21:08:35 10° WSW 21:12:44 74° SSE 21:16:53 10° E
Cosmos 1486 Rocket 4.3 21:08:00 10° NNW 21:13:17 60° ENE 21:18:13 11° SE
Cosmos 1378 3.1 21:10:11 10° S 21:13:51 64° E 21:17:33 10° NNE
Cosmos 1544 Rocket 4.4 21:10:54 10° N 21:14:58 38° ENE 21:18:39 12° SE
STARLINK-1206 3.7 21:11:18 10° W 21:15:28 87° N 21:19:37 10° E
USA 215 3.6 21:10:02 10° E 21:16:33 70° NNE 21:23:03 10° WNW
Lacrosse 5 4.1 21:15:14 10° W 21:17:26 13° WSW 21:19:39 10° SSW
STARLINK-1203 3.6 21:13:24 10° WSW 21:17:36 76° SSE 21:21:49 10° E
STARLINK-1216 3.5 21:13:33 10° WSW 21:17:42 76° SSE 21:21:51 10° E
Cosmos 1242 Rocket 4.1 21:15:26 12° SE 21:17:54 22° E 21:20:49 10° NE
Cosmos 304 Rocket 3.9 21:13:19 10° SSW 21:18:07 83° WNW 21:22:57 10° NNE
NOSS 8 (E) 4.4 21:16:20 10° SW 21:19:25 73° NW 21:22:33 10° NE
STARLINK-1205 3.6 21:16:16 10° W 21:20:26 87° N 21:24:35 10° E
Cosmos 1092 Rocket 4.0 21:16:11 10° S 21:22:14 65° E 21:28:21 10° NNE
CENTAUR R/B 3.2 21:14:35 10° NW 21:22:24 85° NE 21:31:08 10° SE
NOSS 2-2 (D) 3.3 21:19:09 10° SSW 21:22:39 52° SE 21:26:42 10° NE
STARLINK-1237 3.5 21:18:32 10° WSW 21:22:41 78° SSE 21:26:50 10° E
STARLINK-1218 3.6 21:21:16 10° W 21:25:26 87° N 21:29:35 10° E
ATLAS 3B R/B 3.2 21:19:06 10° NW 21:25:43 56° NNE 21:32:33 10° ESE
Cosmos 1674 Rocket 4.5 21:22:20 10° SSW 21:26:36 49° WNW 21:30:55 10° N
SL-27 R/B 2.5 21:22:58 10° NNW 21:26:37 82° ENE 21:29:28 15° SSE
STARLINK-1202 3.5 21:23:30 10° WSW 21:27:39 80° SSE 21:31:49 10° E
NOSS 3-2 (C) 4.1 21:20:21 10° NW 21:27:40 86° SW 21:35:37 12° SE
Cosmos 1766 3.5 21:25:03 10° NNW 21:29:02 68° W 21:32:47 11° S
Cosmos 1378 Rocket 4.1 21:25:05 10° SSW 21:29:25 58° WNW 21:33:47 10° N
Cosmos 1726 4.0 21:27:13 10° NNE 21:29:59 19° ENE 21:32:45 10° ESE
STARLINK-1254 3.6 21:26:14 10° W 21:30:25 88° N 21:34:34 10° E
Cosmos 1867 3.9 21:27:19 10° NW 21:32:46 66° NE 21:38:06 10° SE
COSMOS 2487 4.2 21:31:12 10° N 21:34:04 23° NE 21:36:54 10° ESE
STARLINK-1231 3.6 21:31:12 10° W 21:35:22 89° N 21:39:32 10° E
STARLINK-1246 3.6 21:33:28 10° WSW 21:37:38 84° SSE 21:41:48 10° E
Cosmos 1943 Rocket 2.2 21:33:31 10° SSW 21:38:58 61° ESE 21:44:31 10° NE
Cosmos 2297 4.0 21:33:27 10° SW 21:39:09 74° WNW 21:44:55 10° NNE
NOSS 2-2 (E) 3.2 21:36:16 10° SW 21:39:55 85° SE 21:44:18 10° NE
STARLINK-1232 3.6 21:36:12 10° W 21:40:22 89° N 21:44:32 10° E
NOSS 3-4 (A) 4.4 21:36:32 13° SSE 21:40:33 26° ESE 21:45:34 10° ENE
NOSS 3-4 (C) 4.5 21:36:40 13° SSE 21:40:40 25° ESE 21:45:41 10° ENE
Cosmos 2082 Rocket 4.4 21:37:43 10° WNW 21:41:14 17° W 21:44:44 10° SW
SeaSat 1 3.8 21:38:12 10° NE 21:42:00 22° ESE 21:44:34 15° SE
STARLINK-1224 3.6 21:38:26 10° WSW 21:42:36 86° S 21:46:46 10° E
STARLINK-1208 3.6 21:41:10 10° W 21:45:20 89° SSE 21:49:30 10° E
Cosmos 1461 3.7 21:43:01 10° WSW 21:47:12 57° NW 21:51:37 10° NE
STARLINK-1225 3.6 21:43:26 10° W 21:47:35 87° S 21:51:46 10° E
STARLINK-1212 2.9 21:45:24 10° W 21:48:29 59° SSW 21:50:46 16° ESE
Cosmos 1975 Rocket 3.0 21:44:36 11° S 21:48:54 85° E 21:53:19 10° NNE
STARLINK-1105 2.9 21:45:52 10° W 21:48:56 59° SSW 21:51:13 16° ESE
STARLINK-1247 2.9 21:46:44 10° W 21:49:50 58° SSW 21:52:06 16° ESE
STARLINK-1227 2.9 21:47:14 10° W 21:50:19 58° SSW 21:52:32 17° ESE
STARLINK-1271 3.6 21:46:11 10° W 21:50:20 88° SSW 21:54:31 10° E
STARLINK-1226 2.9 21:48:06 10° W 21:51:10 57° SSW 21:53:23 17° ESE
BREEZE-M DEB (TANK) 3.8 21:37:34 10° WSW 21:51:15 54° S 21:55:05 10° E
BREEZE-M DEB (TANK) 3.0 21:47:56 10° W 21:51:56 54° S 21:55:34 10° ESE
STARLINK-1215 2.9 21:49:00 10° W 21:52:04 57° SSW 21:54:16 17° SE
Cosmos 292 Rocket 4.1 21:48:20 13° S 21:52:22 48° ESE 21:57:03 10° NE
STARLINK-1230 3.6 21:48:24 10° W 21:52:34 88° S 21:56:44 10° E
Cosmos 2227 Rocket 4.4 21:48:23 10° NNW 21:52:36 21° NNE 21:56:48 10° ENE
S3M 4.3 21:47:05 10° N 21:53:09 56° ENE 21:58:10 16° SSE
STARLINK-1217 3.0 21:50:48 10° W 21:53:53 56° SSW 21:56:00 18° SE
STARLINK-1229 3.0 21:51:43 10° W 21:54:48 55° SSW 21:56:54 18° SE
Cosmos 2369 Rocket 2.3 21:49:36 10° SSW 21:55:10 59° ESE 22:00:43 10° NE
STARLINK-1154 3.6 21:51:09 10° W 21:55:19 87° S 21:59:29 10° E
STARLINK-1270 3.0 21:52:37 10° W 21:55:41 55° SSW 21:57:46 18° SE
Aureole 3 Rocket 4.3 21:50:54 10° N 21:56:50 85° E 22:03:54 15° SSE
STARLINK-1189 3.0 21:54:25 10° W 21:57:28 54° SSW 21:59:29 19° SE
STARLINK-1243 3.6 21:53:24 10° W 21:57:33 90° S 22:01:44 10° E
STARLINK-1188 3.0 21:55:19 10° W 21:58:23 53° SSW 22:00:21 19° SE
SPOT 5 4.1 21:53:48 10° SSW 21:58:42 39° W 22:03:45 10° NNW
STARLINK-1187 3.1 21:56:26 10° W 21:59:27 49° SSW 22:01:13 21° SE
Cosmos 1340 Rocket 3.8 21:55:52 10° N 21:59:41 38° ENE 22:02:31 16° SE
STARLINK-1197 3.5 21:56:07 10° W 22:00:17 85° S 22:04:26 10° ESE
STARLINK-1191 3.0 21:57:46 10° W 22:00:49 51° SSW 22:02:40 20° SE
ATLAS CENTAUR R/B 2.9 21:59:35 17° SE 22:00:54 20° ESE 22:03:56 10° ENE
STARLINK-1221 3.0 21:58:43 10° W 22:01:45 51° SSW 22:03:34 21° SE
STARLINK-1236 3.6 21:58:21 10° W 22:02:31 89° N 22:06:42 10° E
STARLINK-1222 3.1 21:59:34 10° W 22:02:36 50° SSW 22:04:23 21° SE
Thor Agena Rocket 4.0 21:58:13 10° NNE 22:03:22 48° E 22:07:12 17° S
STARLINK-1214 3.1 22:00:28 10° W 22:03:30 50° SSW 22:05:15 21° SE
NOSS 2-2 (C) 3.4 22:00:55 10° SW 22:04:33 76° NW 22:08:53 10° NE
ERS-1 Rocket 4.5 22:00:23 10° SSW 22:04:46 30° W 22:09:12 10° NNW
STARLINK-1198 3.5 22:01:05 10° W 22:05:15 84° SSW 22:09:25 10° ESE
EXPRESS MD2 4.1 22:01:34 10° WSW 22:05:28 60° SSE 22:13:29 10° E
Cosmos 1025 Rocket 3.4 22:02:58 19° SSE 22:05:47 47° E 22:09:56 10° NNE
Okean 2 3.9 22:02:11 10° SSW 22:06:17 58° WNW 22:10:25 10° N
Cosmos 2026 Rocket 4.1 22:00:25 10° S 22:06:43 85° W 22:13:09 10° N
Cosmos 1553 Rocket 4.0 22:00:23 10° N 22:06:44 87° ENE 22:11:43 17° S
BREEZE M DEB (TANK) 2.4 22:04:35 10° WSW 22:07:39 35° S 22:08:33 24° SE
Cosmos 1953 2.8 22:04:12 10° N 22:08:06 50° ENE 22:10:41 19° SE
ATLAS 2AS CENTAUR R/B 3.4 22:01:04 10° S 22:08:34 47° ESE 22:16:02 10° NE
Cosmos 1656 Rocket 4.2 22:04:50 16° S 22:08:53 41° ESE 22:14:05 10° NE
Cosmos 1470 2.8 22:05:21 10° NNW 22:09:14 76° W 22:11:51 20° S
STARLINK-1228 3.6 22:05:55 10° W 22:09:17 43° SSW 22:11:08 22° SE
STARLINK-1199 3.5 22:06:05 10° W 22:10:15 82° SSW 22:14:25 10° ESE
STARLINK-1235 3.5 22:08:40 10° W 22:11:45 40° SSW 22:13:11 24° SSE
STARLINK-1269 3.6 22:08:20 10° W 22:12:30 88° N 22:16:40 10° E
APEX 4.3 22:07:03 10° SSW 22:13:19 60° ESE 22:18:25 10° NE
Cosmos 968 Rocket 3.7 22:08:43 10° NNW 22:13:51 63° WSW 22:17:31 18° S
Cosmos 2292 Rocket 4.4 22:13:24 18° SE 22:14:56 24° E 22:17:33 10° NE
STARLINK-1210 3.5 22:11:03 10° W 22:15:13 80° SSW 22:19:22 10° ESE
Cosmos 1455 Rocket 3.8 22:11:54 10° NNW 22:16:03 45° W 22:19:25 15° SSW
STARLINK-1200 3.6 22:13:18 10° W 22:17:28 87° N 22:21:38 10° E
Cosmos 1655 Rocket 4.2 22:15:01 17° SSE 22:19:46 60° E 22:25:57 10° NNE
STARLINK-1219 3.5 22:16:01 10° W 22:20:11 78° SSW 22:24:20 10° ESE
SL-4 R/B 1.9 22:20:18 24° ESE 22:20:56 28° ENE 22:22:53 10° N
STARLINK-1192 3.6 22:18:18 10° W 22:22:28 87° N 22:26:38 10° E
ATLAS 5 CENTAUR R/B 2.5 22:21:46 23° SSE 22:22:38 25° SE 22:24:43 10° E
Cosmos 1758 3.6 22:18:41 10° NNW 22:22:43 64° W 22:25:25 20° S
STARLINK-1211 3.5 22:21:01 10° W 22:25:10 75° SSW 22:29:19 10° ESE
Cosmos 2228 4.1 22:21:51 10° N 22:25:46 34° ENE 22:28:36 16° SE
SL-4 R/B 2.8 22:22:20 10° SW 22:26:48 39° SSE 22:31:17 10° E
Terra 3.4 22:23:19 10° SSW 22:27:22 27° W 22:31:28 10° NW
STARLINK-1244 3.6 22:23:16 10° W 22:27:25 87° N 22:31:36 10° E
Cosmos 1842 4.2 22:24:08 10° SSW 22:27:50 43° WNW 22:31:35 10° N
ERBS 3.8 22:25:42 10° WNW 22:28:52 38° N 22:32:01 10° ENE
STARLINK-1234 3.9 22:26:29 10° W 22:29:27 31° SSW 22:30:17 27° S
STARLINK-1245 3.5 22:26:00 10° W 22:30:08 73° SSW 22:34:17 10° ESE
STARLINK-1138 3.6 22:28:15 10° W 22:32:26 87° N 22:36:35 10° E
In-Cosmos 22 4.4 22:30:05 20° SSE 22:33:32 51° E 22:38:38 10° NNE
Cosmos 1503 Rocket 4.3 22:28:44 10° NNW 22:33:58 61° WSW 22:37:35 20° S
STARLINK-1233 3.5 22:30:57 10° W 22:35:05 71° SSW 22:39:12 10° ESE
STARLINK-1209 4.0 22:32:42 10° W 22:35:35 28° SSW 22:36:13 26° S
STARLINK-1143 3.6 22:33:13 10° W 22:37:23 87° N 22:41:33 10° E
Cosmos 2266 Rocket 4.1 22:33:43 19° SSE 22:38:02 60° E 22:43:59 10° NNE
STARLINK-1204 3.5 22:35:56 10° W 22:40:04 68° SSW 22:43:59 11° ESE
SJ 16-02 3.7 22:38:38 10° N 22:41:46 18° NE 22:44:53 10° E
STARLINK-1241 3.6 22:38:14 10° W 22:42:24 87° N 22:46:34 10° E
Cosmos 2263 4.2 22:39:24 10° SSW 22:45:02 88° WNW 22:50:42 10° NNE
STARLINK-1238 3.6 22:40:57 10° W 22:45:03 65° SSW 22:48:47 12° ESE
STARLINK-1239 3.6 22:43:12 10° W 22:47:23 88° N 22:51:32 10° E
Cosmos 1536 Rocket 3.6 22:45:44 20° SSW 22:48:43 78° W 22:53:08 10° N
STARLINK-1201 3.6 22:45:55 10° W 22:50:02 63° SSW 22:53:33 14° ESE
Cosmos 1674 3.4 22:48:20 24° SSE 22:50:04 39° E 22:53:39 10° NNE
STARLINK-1240 3.6 22:48:10 10° W 22:52:21 88° NNE 22:56:30 10° E
Cosmos 1271 Rocket 3.4 22:49:29 16° SW 22:52:25 52° WNW 22:56:18 10° N
Cosmos 1242 Rocket 3.9 22:49:25 11° SW 22:52:35 35° WNW 22:56:02 10° N
Cosmos 883 Rocket 4.5 22:48:28 10° N 22:54:38 89° W 22:58:57 21° S
STARLINK-1206 3.6 22:50:55 10° W 22:55:00 60° SSW 22:58:21 15° SE
STARLINK-60 3.0 22:52:21 11° SW 22:55:19 50° SSE 22:58:25 10° E
Cosmos 2219 4.0 22:51:01 10° NNW 22:56:31 47° NE 23:01:57 10° ESE
Spot 4 4.4 22:53:29 20° SSW 22:56:38 50° W 23:01:22 10° NNW
COSMOS 2455 3.0 22:52:50 18° SSW 22:57:13 56° ESE 23:03:07 10° NE
STARLINK-1216 3.6 22:53:08 10° W 22:57:18 89° NNW 23:01:28 10° E
STARLINK-1203 3.6 22:53:13 10° W 22:57:26 89° N 23:01:40 10° E
USA 215 3.2 22:53:06 10° SE 22:59:38 69° SSW 23:06:11 10° WNW
STARLINK-1205 3.6 22:55:53 10° W 22:59:57 58° SSW 23:03:07 16° SE
Cosmos 2297 Rocket 3.2 22:55:21 10° NNW 23:00:46 43° NE 23:06:08 10° ESE
STARLINK-1237 3.6 22:58:08 10° W 23:02:17 90° WSW 23:06:28 10° E
Cosmos 1707 3.5 22:59:44 17° SW 23:02:29 48° WNW 23:06:16 10° N
Helios 1A 3.2 23:01:35 23° SSE 23:04:09 67° ENE 23:08:19 10° N
Lacrosse 4 Rocket 3.7 23:00:47 10° NNW 23:04:22 24° NNE 23:07:53 10° E
STARLINK-1218 3.7 23:00:53 10° W 23:04:56 55° SSW 23:07:55 17° SE
Cosmos 1726 2.8 23:01:52 10° NNW 23:05:26 44° W 23:07:20 23° SSW
STARLINK-1202 3.5 23:03:07 10° W 23:07:17 89° SSW 23:11:27 10° E
Cosmos 1174 3.5 23:06:36 29° SSW 23:08:06 59° SE 23:11:58 10° NE
Timation 2 Rocket 3.9 23:01:51 10° NW 23:08:16 87° WSW 23:12:54 18° SSE
Cosmos 2058 Rocket 3.7 23:04:46 10° N 23:09:06 49° ENE 23:11:58 20° SE
COSMOS 2487 3.4 23:06:00 10° NW 23:09:13 35° WSW 23:10:32 25° SSW
STARLINK-1254 3.7 23:05:51 10° W 23:09:54 52° SSW 23:12:41 19° SE
ALOS 2 2.7 23:07:47 25° S 23:10:19 66° WSW 23:14:42 10° NNW
CENTAUR R/B 4.0 23:05:38 10° NW 23:12:48 36° WSW 23:18:18 18° S
STARLINK-1231 3.8 23:10:50 10° W 23:14:51 50° SSW 23:17:27 20° SE
ATLAS 3B R/B 3.0 23:09:57 10° NW 23:16:28 53° SW 23:21:09 20° SSE
EO 1 Del DPAF 4.4 23:13:03 10° N 23:16:34 37° WNW 23:19:29 14° SW
STARLINK-1246 3.5 23:13:05 10° W 23:17:15 86° S 23:21:25 10° ESE
Meteor 2-5 Rocket 4.0 23:14:12 22° SSE 23:17:41 55° E 23:23:12 10° NNE
Cosmos 1606 Rocket 3.5 23:14:52 10° NNW 23:19:12 76° W 23:21:36 26° S
STARLINK-1232 3.8 23:15:50 10° W 23:19:50 47° SSW 23:22:14 21° SE
SeaSat 1 2.6 23:15:03 10° NNE 23:20:00 77° NW 23:24:20 14° SW
FALCON 9 DEB 3.8 23:20:07 32° SSE 23:20:29 33° SSE 23:23:38 10° E
SL-14 R/B 4.3 23:19:11 22° SE 23:20:59 33° E 23:24:28 10° NNE
STARLINK-1224 3.5 23:18:04 10° W 23:22:13 84° S 23:26:23 10° ESE
Cosmos 1943 Rocket 3.7 23:18:01 10° WSW 23:23:05 34° NW 23:28:13 10° NNE
STARLINK-1208 3.9 23:20:48 10° W 23:24:46 45° SSW 23:27:00 23° SSE
STARLINK-29 3.1 23:24:02 30° SSW 23:25:13 47° SSE 23:28:19 10° E
Cosmos 2098 Rocket 4.4 23:20:08 20° S 23:25:30 87° E 23:33:01 10° N
ATLAS CENTAUR R/B 0.7 23:25:11 10° WNW 23:27:11 84° NNE 23:30:39 10° ESE
STARLINK-1225 3.5 23:23:03 10° W 23:27:13 82° SSW 23:31:23 10° ESE
SL-16 R/B 4.4 23:22:59 10° ESE 23:27:53 25° NE 23:32:48 10° N
STARLINK-1271 4.0 23:25:49 10° W 23:29:45 43° SSW 23:31:49 24° SSE
NOSS 3-4 (A) 3.5 23:24:39 10° SW 23:30:41 85° NW 23:37:15 10° NE
NOSS 3-4 (C) 3.5 23:24:45 10° SW 23:30:48 86° NW 23:37:22 10° NE
RESURS DK-1 2.6 23:29:48 27° S 23:31:48 54° ESE 23:35:51 10° NE
STARLINK-1230 3.5 23:28:01 10° W 23:32:11 81° SSW 23:36:20 10° ESE
Cosmos 2315 Rocket 4.2 23:26:40 10° NNW 23:32:47 62° W 23:36:58 21° SSW
STARLINK-1390 4.5 23:33:35 25° SSE 23:33:46 25° SE 23:36:57 10° E
STARLINK-1154 4.0 23:30:48 10° W 23:34:42 40° SSW 23:36:35 25° SSE
Cosmos 2084 4.0 23:33:37 26° S 23:35:39 44° SE 23:39:55 10° ENE
Cosmos 1340 Rocket 4.4 23:32:37 10° NW 23:35:59 25° W 23:38:06 17° SW
BREEZE-M R/B 4.3 23:31:44 15° SSW 23:36:13 29° SSE 23:39:45 10° E
STARLINK-1243 3.5 23:33:01 10° W 23:37:11 78° SSW 23:41:20 10° ESE
Cosmos 1626 2.6 23:36:00 27° SSE 23:37:42 50° E 23:41:20 10° NNE
Cosmos 2227 Rocket 2.6 23:32:10 10° NNW 23:37:50 63° NE 23:43:27 10° SE
ATLAS CENTAUR R/B 1.5 23:35:42 14° SW 23:39:27 76° NW 23:43:30 10° NE
Cosmos 2369 Rocket 3.7 23:34:21 10° WSW 23:39:31 35° NW 23:44:42 10° NNE
STARLINK-1197 4.1 23:35:46 10° W 23:39:38 38° SSW 23:41:21 26° SSE
Okean 1-7 Rocket 3.8 23:37:39 25° S 23:40:10 63° E 23:44:41 10° NNE
Cosmos 1908 4.0 23:37:07 10° NNW 23:40:42 39° W 23:42:29 24° SW
CZ-4 R/B 4.5 23:36:34 10° NNE 23:41:09 43° E 23:43:50 22° SSE
STARLINK-1236 3.5 23:37:59 10° W 23:42:08 76° SSW 23:46:17 10° ESE
Aureole 3 4.5 23:40:48 10° NW 23:43:23 22° W 23:44:31 18° WSW
Nadezhda 2 Rocket 4.5 23:39:44 22° S 23:43:54 83° E 23:50:06 10° NNE
Cosmos 1953 4.3 23:41:21 10° NW 23:44:09 18° W 23:46:22 12° WSW
STARLINK-1198 4.2 23:40:46 10° W 23:44:35 36° SSW 23:46:07 26° SSE
Landsat 4 3.6 23:45:24 10° NNE 23:49:08 86° ESE 23:51:00 28° SSW
STARLINK-1199 4.3 23:45:47 10° W 23:49:33 34° SSW 23:50:55 27° S
STARLINK-1269 3.5 23:47:57 10° W 23:52:06 71° SSW 23:56:14 10° ESE
STARLINK-1210 4.3 23:50:46 10° W 23:54:29 32° SSW 23:55:41 27° S
